Weather reports worldwide

Advertisment
Shoeburyness Landwick, United Kingdom (3693): temperature & dewpoint: 18.04.2019 08:00:00 - 24.04.2019 08:00:00 (BST)Shoeburyness Landwick, United Kingdom (3693): temperature -20cm & temperature -100cm: 18.04.2019 08:00:00 - 24.04.2019 08:00:00 (BST)Shoeburyness Landwick, United Kingdom (3693): wind speed: 18.04.2019 08:00:00 - 24.04.2019 08:00:00 (BST)Shoeburyness Landwick, United Kingdom (3693): wind direction: 18.04.2019 08:00:00 - 24.04.2019 08:00:00 (BST)Shoeburyness Landwick, United Kingdom (3693): reduced air pressure: 18.04.2019 08:00:00 - 24.04.2019 08:00:00 (BST)Shoeburyness Landwick, United Kingdom (3693): visibility: 18.04.2019 08:00:00 - 24.04.2019 08:00:00 (BST)Shoeburyness Landwick, United Kingdom (3693): sunshine duration: 18.04.2019 08:00:00 - 24.04.2019 08:00:00 (BST)Shoeburyness Landwick, United Kingdom (3693): precipitation: 18.04.2019 08:00:00 - 24.04.2019 08:00:00 (BST)
Date & Time tt [°C] td [°C] tt -20cm [°C] tt -100cm [°C] ff [km/h] ff [kn] dd ppp [hPa] vv [km] sd [min] rr [mm]
24.04.2019 08:00:00 12,1 11,1 - - 5 3 SE 993,3 4,7 36 -
24.04.2019 07:00:00 9,1 8,7 - - 4 2 SSE 993,3 1,8 0 0,0
24.04.2019 06:00:00 8,3 7,9 - - 4 2 E 993,3 1,6 0 0,0
24.04.2019 05:00:00 8,7 8,3 - - 4 2 NNW 993,3 2,2 0 0,0
24.04.2019 04:00:00 8,4 8,0 - - 0 0 N 993,7 2,5 0 0,0
24.04.2019 03:00:00 8,2 7,9 - - 5 3 N 993,8 2,2 0 0,0
24.04.2019 02:00:00 8,2 7,9 - - 4 2 NNW 994,2 2,2 0 0,0
24.04.2019 01:00:00 6,6 6,0 - - 2 1 NE 994,6 2,0 - 0,0
24.04.2019 00:00:00 7,7 6,9 - - 5 3 ENE 995,0 3,2 0 0,0
23.04.2019 23:00:00 8,4 6,9 - - 5 3 ENE 995,3 6 0 0,0
23.04.2019 22:00:00 9,3 7,3 - - 9 5 NE 995,6 6 0 0,0
23.04.2019 21:00:00 10,5 8,5 - - 8 4 NE 995,9 8 0 0,0
23.04.2019 20:00:00 11,2 9,0 - - 9 5 NE 995,8 8 0 0,0
23.04.2019 19:00:00 12,4 8,2 - - 15 8 NE 995,9 13 0 0,0
23.04.2019 18:00:00 13,0 8,3 - - 15 8 ENE 996,3 15 0 0,0
23.04.2019 17:00:00 13,0 8,0 - - 16 9 ENE 996,6 16 0 0,0
23.04.2019 16:00:00 13,6 7,9 - - 21 11 ENE 996,9 18 0 0,0
23.04.2019 15:00:00 13,8 7,5 - - 21 11 ENE 997,2 27 48 0,0
23.04.2019 14:00:00 13,9 7,3 - - 26 14 ENE 997,7 27 48 0,0
23.04.2019 13:00:00 14,0 8,2 - - 22 12 NE 997,8 23 48 0,0
23.04.2019 12:00:00 14,5 8,3 - - 18 10 ENE 998,1 23 48 0,0
23.04.2019 11:00:00 14,4 8,0 - - 21 11 ENE 998,3 40 60 0,0
23.04.2019 10:00:00 14,0 8,9 11,9 10,2 18 10 E 998,3 30 12 0,0
23.04.2019 09:00:00 13,0 8,5 - - 16 9 E 998,4 27 0 0,0
23.04.2019 08:00:00 11,8 9,0 - - 15 8 E 998,6 17 0 0,0
23.04.2019 07:00:00 11,1 8,9 - - 16 9 ENE 998,4 16 0 0,0
23.04.2019 06:00:00 9,3 8,4 - - 11 6 ENE 998,5 10 0 0,0
23.04.2019 05:00:00 8,1 7,2 - - 9 5 NE 998,9 7 0 0,0
23.04.2019 04:00:00 9,0 8,0 - - 11 6 NE 999,3 6 0 0,0
23.04.2019 03:00:00 8,0 7,1 - - 8 4 N 1000,0 4,1 0 0,0
23.04.2019 02:00:00 8,2 7,0 - - 8 4 N 1000,6 5 0 0,0
23.04.2019 01:00:00 8,9 7,9 - - 8 4 N 1000,9 6 - 0,0
23.04.2019 00:00:00 8,1 6,9 - - 9 5 N 1001,5 2,9 0 0,0
22.04.2019 23:00:00 9,2 7,9 - - 8 4 NNW 1002,0 2,2 0 0,0
22.04.2019 22:00:00 11,1 9,6 - - 5 3 NNW 1002,5 3,8 0 0,0
22.04.2019 21:00:00 13,2 9,6 - - 5 3 NE 1002,8 8 0 0,0
22.04.2019 20:00:00 14,1 9,9 - - 8 4 ENE 1002,7 9 0 0,0
22.04.2019 19:00:00 14,9 9,8 - - 13 7 E 1002,8 8 12 0,0
22.04.2019 18:00:00 15,7 9,6 - - 18 10 E 1003,1 7 42 0,0
22.04.2019 17:00:00 15,7 9,1 - - 18 10 E 1003,5 7 48 0,0
22.04.2019 16:00:00 15,5 9,2 - - 21 11 E 1004,1 8 60 0,0
22.04.2019 15:00:00 16,0 8,6 - - 22 12 E 1004,7 9 60 0,0
22.04.2019 14:00:00 16,4 8,9 - - 21 11 E 1005,5 9 60 0,0
22.04.2019 13:00:00 16,1 7,6 - - 22 12 E 1006,0 11 60 0,0
22.04.2019 12:00:00 16,5 9,0 - - 13 7 E 1006,6 14 60 0,0
22.04.2019 11:00:00 15,1 8,8 - - 15 8 E 1007,4 10 60 0,0
22.04.2019 10:00:00 14,4 9,3 11,5 10,0 16 9 E 1008,0 11 60 0,0
22.04.2019 09:00:00 13,5 9,1 - - 15 8 E 1008,2 10 60 0,0
22.04.2019 08:00:00 10,7 10,7 - - 8 4 NE 1008,8 4,1 60 0,0
22.04.2019 07:00:00 6,2 6,2 - - 8 4 N 1009,3 1,0 12 0,0
22.04.2019 06:00:00 4,7 4,7 - - 9 5 NNW 1009,5 0,7 0 0,0
22.04.2019 05:00:00 4,8 4,7 - - 5 3 N 1010,3 0,5 0 0,0
22.04.2019 04:00:00 4,5 4,4 - - 8 4 N 1011,1 0,3 0 0,0
22.04.2019 03:00:00 3,7 3,6 - - 8 4 N 1011,9 0,1 0 0,0
22.04.2019 02:00:00 3,9 3,7 - - 8 4 N 1012,8 - 0 0,0
22.04.2019 01:00:00 4,1 3,8 - - 8 4 ENE 1013,8 - - 0,0
22.04.2019 00:00:00 5,1 4,8 - - 4 2 NE 1014,7 - 0 0,0
21.04.2019 23:00:00 6,4 5,9 - - 5 3 NE 1015,2 - 0 0,0
21.04.2019 22:00:00 6,6 5,0 - - 8 4 NE 1015,8 3,8 0 0,0
21.04.2019 21:00:00 7,9 5,5 - - 5 3 NNE 1016,2 5 0 0,0
21.04.2019 20:00:00 10,8 5,9 - - 5 3 NE 1016,3 6 54 0,0
21.04.2019 19:00:00 15,1 5,4 - - 9 5 ENE 1016,6 13 60 0,0
21.04.2019 18:00:00 16,4 5,2 - - 13 7 ENE 1017,0 14 60 0,0
21.04.2019 17:00:00 16,7 4,4 - - 15 8 E 1017,8 14 60 0,0
21.04.2019 16:00:00 16,0 8,7 - - 13 7 E 1018,7 11 60 0,0
21.04.2019 15:00:00 15,7 9,0 - - 15 8 E 1019,4 10 60 0,0
21.04.2019 14:00:00 16,0 7,3 - - 16 9 E 1020,2 13 60 0,0
21.04.2019 13:00:00 16,0 8,5 - - 16 9 E 1021,0 14 60 0,0
21.04.2019 12:00:00 16,0 7,6 - - 16 9 E 1021,5 17 60 0,0
21.04.2019 11:00:00 15,6 9,8 - - 15 8 E 1022,0 12 60 0,0
21.04.2019 10:00:00 14,8 9,3 11,2 10,0 9 5 ENE 1022,4 10 60 0,0
21.04.2019 09:00:00 12,7 10,2 - - 8 4 N 1022,8 9 60 0,0
21.04.2019 08:00:00 8,9 8,0 - - 8 4 NNW 1023,0 6 60 0,0
21.04.2019 07:00:00 5,7 5,2 - - 9 5 NW 1023,4 4,4 24 0,0
21.04.2019 06:00:00 4,0 3,3 - - 8 4 NW 1023,4 3,6 0 0,0
21.04.2019 05:00:00 4,6 3,9 - - 9 5 NNW 1023,7 4,1 0 0,0
21.04.2019 04:00:00 4,7 3,7 - - 9 5 N 1024,3 4,8 0 0,0
21.04.2019 03:00:00 5,4 4,4 - - 9 5 N 1024,9 7 0 0,0
21.04.2019 02:00:00 5,4 3,6 - - 11 6 NNW 1025,7 6 0 0,0
21.04.2019 01:00:00 6,4 4,5 - - 11 6 NNW 1026,5 8 - 0,0
21.04.2019 00:00:00 6,9 5,1 - - 11 6 N 1027,1 7 0 0,0
20.04.2019 23:00:00 7,6 5,7 - - 9 5 NNE 1027,7 7 0 0,0
20.04.2019 22:00:00 8,8 5,5 - - 11 6 NE 1028,0 10 0 0,0
20.04.2019 21:00:00 9,4 6,4 - - 13 7 NE 1028,1 10 0 0,0
20.04.2019 20:00:00 12,0 5,9 - - 16 9 ENE 1027,7 15 48 0,0
20.04.2019 19:00:00 14,4 6,4 - - 16 9 NE 1027,9 13 60 0,0
20.04.2019 18:00:00 16,3 6,7 - - 21 11 ENE 1028,0 17 60 0,0
20.04.2019 17:00:00 17,2 8,0 - - 18 10 ENE 1028,5 15 60 0,0
20.04.2019 16:00:00 15,9 10,1 - - 11 6 E 1028,9 11 60 0,0
20.04.2019 15:00:00 17,2 10,5 - - 9 5 ESE 1029,6 12 60 0,0
20.04.2019 14:00:00 17,3 8,9 - - 13 7 E 1030,0 11 60 0,0
20.04.2019 13:00:00 17,7 10,8 - - 13 7 E 1030,3 10 60 0,0
20.04.2019 12:00:00 18,2 10,2 - - 13 7 ENE 1030,7 13 60 0,0
20.04.2019 11:00:00 16,2 9,5 - - 11 6 ENE 1030,8 9 60 0,0
20.04.2019 10:00:00 14,0 9,3 11,0 9,7 8 4 NNE 1030,9 9 60 0,0
20.04.2019 09:00:00 11,8 8,7 - - 8 4 NNE 1031,0 8 60 0,0
20.04.2019 08:00:00 9,6 8,6 - - 5 3 N 1030,9 5 60 0,0
20.04.2019 07:00:00 7,0 6,6 - - 11 6 NNW 1030,7 3,5 24 0,0
20.04.2019 06:00:00 5,6 4,9 - - 13 7 NNW 1030,3 2,7 0 0,0
20.04.2019 05:00:00 6,5 5,8 - - 15 8 NW 1030,3 3,5 0 0,0
20.04.2019 04:00:00 6,8 6,1 - - 13 7 NNW 1030,3 4,0 0 0,0
20.04.2019 03:00:00 7,0 6,2 - - 13 7 NNW 1030,1 4,3 0 0,0
20.04.2019 02:00:00 6,8 5,9 - - 11 6 NNW 1030,2 3,8 0 0,0
20.04.2019 01:00:00 6,2 5,0 - - 13 7 N 1030,4 5 - 0,0
20.04.2019 00:00:00 6,4 4,4 - - 5 3 N 1030,8 7 0 0,0
19.04.2019 23:00:00 8,0 5,9 - - 13 7 NW 1030,7 8 0 0,0
19.04.2019 22:00:00 8,2 6,2 - - 9 5 N 1030,5 7 0 0,0
19.04.2019 21:00:00 8,7 6,7 - - 9 5 N 1030,3 6 0 0,0
19.04.2019 20:00:00 11,8 6,3 - - 16 9 NE 1029,7 11 42 0,0
19.04.2019 19:00:00 13,7 7,1 - - 16 9 NE 1029,2 11 60 0,0
19.04.2019 18:00:00 15,4 5,7 - - 26 14 NE 1028,9 13 60 0,0
19.04.2019 17:00:00 16,2 6,7 - - 24 13 NE 1028,8 15 60 0,0
19.04.2019 16:00:00 16,8 6,3 - - 24 13 ENE 1028,8 19 60 0,0
19.04.2019 15:00:00 17,3 6,3 - - 21 11 NE 1028,9 15 60 0,0
19.04.2019 14:00:00 16,5 7,4 - - 18 10 ENE 1029,0 16 60 0,0
19.04.2019 13:00:00 16,0 8,4 - - 18 10 ENE 1028,8 13 60 0,0
19.04.2019 12:00:00 15,1 8,7 - - 13 7 NE 1028,9 13 60 0,0
19.04.2019 11:00:00 15,1 7,8 - - 16 9 ENE 1028,7 15 60 0,0
19.04.2019 10:00:00 13,7 8,4 10,7 9,7 21 11 NE 1028,6 12 60 0,0
19.04.2019 09:00:00 12,6 8,7 - - 21 11 NE 1028,2 10 60 0,0
19.04.2019 08:00:00 10,8 8,3 - - 16 9 NE 1027,7 8 60 0,0
19.04.2019 07:00:00 8,0 7,3 - - 11 6 NNE 1027,3 6 24 0,0
19.04.2019 06:00:00 6,0 5,2 - - 9 5 N 1026,7 3,5 0 0,0
19.04.2019 05:00:00 5,9 5,1 - - 9 5 N 1026,4 4,1 0 0,0
19.04.2019 04:00:00 6,8 5,6 - - 9 5 N 1026,3 5 0 0,0
19.04.2019 03:00:00 8,6 6,8 - - 13 7 NNE 1026,0 7 0 0,0
19.04.2019 02:00:00 8,6 7,1 - - 11 6 N 1026,0 6 0 0,0
19.04.2019 01:00:00 9,2 7,5 - - 15 8 NNE 1025,8 7 - 0,0
19.04.2019 00:00:00 9,0 7,6 - - 13 7 NNE 1025,8 6 0 0,0
18.04.2019 23:00:00 8,9 7,1 - - 11 6 NNE 1025,6 7 0 0,0
18.04.2019 22:00:00 10,4 7,9 - - 18 10 NE 1025,4 9 0 0,0
18.04.2019 21:00:00 10,8 7,9 - - 21 11 NE 1024,9 10 0 0,0
18.04.2019 20:00:00 11,7 7,4 - - 18 10 NE 1024,4 12 0 0,0
18.04.2019 19:00:00 13,7 7,6 - - 22 12 ENE 1023,9 13 36 0,0
18.04.2019 18:00:00 14,8 8,3 - - 21 11 ENE 1023,7 13 60 0,0
18.04.2019 17:00:00 15,1 8,5 - - 21 11 ENE 1023,5 11 60 0,0
18.04.2019 16:00:00 14,4 8,3 - - 18 10 NE 1023,7 10 60 0,0
18.04.2019 15:00:00 15,0 7,9 - - 21 11 ENE 1023,8 8 60 0,0
18.04.2019 14:00:00 15,1 8,1 - - 21 11 ENE 1023,8 16 60 0,0
18.04.2019 13:00:00 14,7 8,2 - - 22 12 ENE 1023,7 10 60 0,0
18.04.2019 12:00:00 15,1 7,8 - - 21 11 E 1023,6 9 60 0,0
18.04.2019 11:00:00 14,9 9,3 - - 21 11 ENE 1023,8 7 60 0,0
18.04.2019 10:00:00 13,6 10,1 10,5 9,5 18 10 ENE 1023,7 6 60 0,0
18.04.2019 09:00:00 12,6 10,4 - - 16 9 ENE 1023,4 4,9 60 0,0
18.04.2019 08:00:00 10,4 10,2 - - 15 8 NE 1023,3 2,3 60 0,0

tt = temperature
td = dewpoint
tt -20cm = temperature -20cm
tt -100cm = temperature -100cm
ff = wind speed
dd = wind direction
ppp = reduced air pressure
vv = visibility
sd = sunshine duration
rr = precipitation

Next stations